OPS 4682 DEB, 18783

Orbit data source: Space-Track

OPS 4682 DEB, 18783 is space debris in LEO originally from a launch on Sat, 03 Apr 1965 UTC launched from the Air Force Western Test Range (AFWTR). Debris objects in space refer to the collection of defunct objects orbiting the Earth. Examples of debris include non-operational satellites, rocket bodies, and fragments generated from explosions, collisions, or faulty payload assembly.

Loading next visibility...
Identifier
18783, 1965-027AK
Orbit
LEO
Country
Flag of USUS
Related business
Manufacturer
Unknown
Mission
Spacecraft
Bus & Motor
Unknown
Mass
Unknown
Launch date (UTC)
1965-04-03 (61 years ago)
Launch vehicle
Unknown
Launch site
Air Force Western Test Range (AFWTR)
Object type
Payload
Rocket body
Debris
Shape & HBR
Unknown shape, 0.1 m
Radar Cross Section
Small (<0.1 m²)

Expand to show TLE details & history
Last TLE update: 1 day ago

TLE from 1 day ago
0 OPS 4682 DEB
1 18783U 65027AK  26103.75089475  .00000079  00000-0  23492-3 0  9993
2 18783  90.2694  24.7328 0029945  18.8905   9.2245 13.00786932572101
Epoch: 2026-04-13T18:01Z
TLE epoch observation values (Epoch: 2026-04-13T18:01:17.306Z)
Latitude
28.20913°
Longitude
-87.6701°
Altitude
1,239.906 km
Speed
7.248 km/s
True Right ascension
01h 38m 21s
True Declination
28° 04' 31"
Sunlit
Object was in daylight at epoch
Visualization orbit readout
Latitude
Unknown
Longitude
Unknown
Altitude
Unknown
Speed
Unknown
Apparent Right ascension
Unknown
Apparent Declination
Unknown
Sunlit
N/A
Visualization observer readout
Local Sidereal Time
04:21:50
Azimuth
Unknown
Elevation
Unknown
Doppler factor
Unknown
Orbital elements
Apogee altitude
1,278.992 km
Perigee altitude
1,233.27 km
Semi-major axis
7,634.268 km
Eccentricity
0.00299
Inclination
90.2694°
RAAN
24.7328°
Arg. of periapsis
18.8905°
True anomaly
9.27971°
Mean anomaly
9.2245°
Eccentric anomaly
9.25209°
Mean motion
3.25381 °/min
Orbital period
110.64 mins
BSTAR
0.00023492
Loading maneuver chart data...
Computing Atmospheric mass density...
Loading historical data...
Loading historical data...
Loading historical data...
Loading historical data...
Loading historical data...
Loading historical data...
Loading historical data...

Documentation

Showing up to 5 results
|